DW8215 Weather Reports


Display with metric or nautical units.
time (UTC)temp
F
wind
direction
speed
MPH
gust
MPH
rain 1hr
in
rain 24hr
in
rain mn
in
humidity
%
barometer
mb
20260505163057 38 272 4.0 12.0 0.00 0.00 0.00 71 1008.0
20260505161555 39 310 5.0 15.0 0.00 0.00 0.00 71 1007.9
20260505153053 40 267 3.0 11.0 0.00 0.00 0.00 73 1007.3
20260505151551 40 269 3.0 13.0 0.00 0.00 0.00 75 1007.1
20260505124528 36 259 4.0 9.0 0.00 0.00 0.00 88 1005.4
20260505123039 37 210 2.0 13.0 0.00 0.00 0.00 87 1005.3
20260505121525 38 223 2.0 10.0 0.00 0.00 0.00 85 1005.0
20260505120021 38 298 2.0 6.0 0.00 0.00 0.00 83 1004.8
20260505114517 38 196 1.0 6.0 0.00 0.00 0.00 79 1004.6
20260505113015 38 261 1.0 6.0 0.00 0.00 0.00 79 1004.4
20260505111514 37 216 2.0 9.0 0.00 0.00 0.00 79 1004.3
20260505101505 38 300 2.0 8.0 0.00 0.00 0.00 79 1003.5
20260505100004 38 257 1.0 4.0 0.00 0.00 0.00 78 1003.4
20260505094502 38 233 0.0 4.0 0.00 0.00 0.00 79 1003.3
20260505093059 38 249 0.0 5.0 0.00 0.00 0.00 79 1003.2
20260505091559 37 233 0.0 0.0 0.00 0.00 0.00 79 1003.0
20260505090058 37 233 0.0 0.0 0.00 0.00 0.00 78 1002.9
20260505084602 37 230 0.0 3.0 0.00 0.00 0.00 77 1003.0
20260505083108 37 225 0.0 0.0 0.00 0.00 0.00 76 1002.9
20260505081553 38 250 0.0 0.0 0.00 0.00 0.00 75 1002.9
20260505080055 38 239 0.0 2.0 0.00 0.00 0.00 75 1002.9
20260505074551 38 253 0.0 1.0 0.00 0.00 0.00 74 1002.9
20260505073058 38 271 0.0 4.0 0.00 0.00 0.00 73 1002.8
20260505071548 39 273 0.0 8.0 0.00 0.00 0.00 73 1002.8
20260505070046 39 238 1.0 6.0 0.00 0.00 0.00 73 1002.9
20260505064610 39 244 0.0 5.0 0.00 0.00 0.00 73 1002.8
20260505063041 40 304 1.0 3.0 0.00 0.00 0.00 73 1002.6
20260505061540 39 281 2.0 4.0 0.00 0.00 0.00 73 1002.5
20260505060036 40 288 2.0 9.0 0.00 0.00 0.00 72 1002.1
20260505054545 40 264 3.0 8.0 0.00 0.00 0.00 72 1001.8
20260505053033 41 255 2.0 11.0 0.00 0.00 0.00 73 1001.8
20260505051528 41 309 5.0 8.0 0.00 0.00 0.00 72 1001.7
20260505041516 43 318 2.0 9.0 0.00 0.00 0.00 65 1001.0
20260505040016 43 268 3.0 12.0 0.00 0.00 0.00 64 1000.9
20260505034519 43 290 6.0 12.0 0.00 0.00 0.00 65 1000.9
20260505033014 43 265 4.0 12.0 0.00 0.00 0.00 64 1000.7
20260505031511 44 308 3.0 10.0 0.00 0.00 0.00 63 1000.7
20260505030032 44 225 3.0 9.0 0.00 0.00 0.00 62 1000.6
20260505024515 44 276 5.0 17.0 0.00 0.00 0.00 62 1000.4
20260505023008 45 219 5.0 16.0 0.00 0.00 0.00 60 1000.4
20260505021508 45 320 5.0 14.0 0.00 0.00 0.00 60 1000.1
20260505020007 46 243 3.0 16.0 0.00 0.00 0.00 59 1000.1
20260505014511 45 304 7.0 18.0 0.00 0.00 0.00 60 999.8
20260505013012 45 281 4.0 15.0 0.00 0.00 0.00 60 999.5
20260505011505 46 248 7.0 15.0 0.00 0.00 0.00 60 999.2
20260505010004 46 240 5.0 16.0 0.00 0.00 0.00 59 999.1
20260505004506 47 235 6.0 15.0 0.00 0.00 0.00 57 999.0
20260505003001 48 302 5.0 20.0 0.00 0.00 0.00 56 998.8
20260505001502 48 5 7.0 17.0 0.00 0.00 0.00 55 998.5
20260505000003 49 249 6.0 19.0 0.00 0.00 0.00 53 998.1
20260504234559 50 315 4.0 20.0 0.00 0.00 0.00 51 997.7
20260504233108 51 235 5.0 17.0 0.00 0.00 0.00 50 997.6
20260504231622 52 223 5.0 14.0 0.00 0.00 0.00 48 997.6
20260504230057 53 314 5.0 18.0 0.00 0.00 0.00 48 997.2
20260504224555 53 310 4.0 18.0 0.00 0.00 0.00 47 997.0
20260504223056 54 313 3.0 21.0 0.00 0.00 0.00 48 996.8
20260504221638 54 229 7.0 21.0 0.00 0.00 0.00 46 996.7
20260504220055 55 267 5.0 17.0 0.00 0.00 0.00 47 996.4
20260504214554 55 239 10.0 24.0 0.00 0.00 0.00 45 996.2
20260504213100 56 317 7.0 16.0 0.00 0.00 0.00 45 996.0
20260504211553 57 270 8.0 22.0 0.00 0.00 0.00 45 995.6
20260504210052 56 340 7.0 21.0 0.00 0.00 0.00 45 995.3
20260504204552 57 298 4.0 24.0 0.00 0.00 0.00 47 995.3
20260504203051 58 305 6.0 16.0 0.00 0.00 0.00 49 995.1
20260504201650 57 273 7.0 22.0 0.00 0.00 0.00 49 994.9
20260504200050 57 329 7.0 15.0 0.00 0.00 0.00 48 994.8
20260504194554 57 243 9.0 25.0 0.00 0.00 0.00 50 994.5
20260504193050 58 228 5.0 19.0 0.00 0.00 0.00 50 994.3
20260504191609 59 246 6.0 19.0 0.00 0.00 0.00 50 994.2
20260504190048 59 275 6.0 16.0 0.00 0.00 0.00 49 993.9
20260504184555 60 271 7.0 17.0 0.00 0.00 0.00 50 993.6
20260504183045 58 232 6.0 17.0 0.00 0.00 0.00 52 993.4
20260504181545 60 326 5.0 16.0 0.00 0.00 0.00 52 993.5
20260504180045 59 246 8.0 25.0 0.00 0.00 0.00 51 993.4
20260504174544 58 234 9.0 20.0 0.00 0.00 0.00 52 993.3
20260504173046 57 205 4.0 12.0 0.00 0.00 0.00 59 993.2
20260504171544 57 250 5.0 14.0 0.00 0.00 0.00 61 993.1